RH
42 40 37 35 32 31 30 29 25 21 18 15 13 12 12 11 10 9 8 7 6 9 14 18 21 21 19 19 22 23 25 23 22 24 24 24 24 24 26 27 24 25 25 25 25 24 23 26 26 25 28 30 30 33 35 37 40 36 31 31 30 29 30 30 32 34 36 38 42 45 48 50 50 52 59 64 67 69 73 76 76 76 77 77 78 82 79
38 35 32 31 30 28 25 22 18 15 13 12 11 10 9 9 10 9 8 8 8 10 13 17 22 24 23 23 22 22 24 25 27 28 27 26 26 26 28 28 24 24 25 24 24 24 23 24 25 26 28 31 33 33 34 36 36 32 29 31 29 27 30 33 39 46 50 51 51 50 51 53 54 61 69 72 73 74 74 75 76 74 73 70 70 73 68
33 30 29 28 25 21 18 15 14 13 11 9 8 7 8 10 10 10 10 9 10 14 16 19 23 25 24 21 20 22 25 25 26 29 30 28 26 26 27 27 25 24 25 26 29 31 27 25 27 27 27 31 33 32 31 33 33 31 31 33 33 33 37 41 45 49 52 52 53 53 56 61 65 70 75 76 76 73 68 70 73 69 64 62 63 64 61
28 27 24 21 18 15 14 13 12 9 7 7 7 8 10 11 11 12 14 11 10 14 16 18 22 23 22 20 20 24 26 25 25 28 29 27 26 26 26 25 24 25 28 30 33 33 29 26 27 28 27 29 31 31 31 31 31 33 35 36 40 43 44 46 50 52 53 53 56 61 65 68 71 73 74 72 70 67 64 65 64 59 57 57 57 57 55
23 21 19 16 15 14 12 10 9 7 7 8 10 11 12 13 15 16 16 14 14 17 17 17 20 20 20 21 22 25 27 26 26 27 28 27 27 27 26 26 25 26 30 31 31 31 30 27 26 27 28 29 30 31 32 32 34 37 38 38 43 46 45 48 54 58 59 62 64 66 68 69 69 68 63 60 59 58 57 55 50 49 54 56 54 55 55
19 17 16 14 12 11 10 9 8 9 10 10 11 12 13 14 15 16 16 16 17 19 18 20 24 24 24 25 25 27 28 27 26 26 26 27 28 25 25 27 29 30 31 29 28 29 29 27 28 28 29 32 34 33 34 36 38 39 37 38 44 48 50 55 61 62 65 68 68 65 63 62 59 55 52 51 53 52 48 46 46 48 54 56 55 57 58
15 14 13 11 10 10 10 10 10 11 11 11 11 12 13 14 15 15 16 17 18 18 18 22 26 27 26 27 26 27 29 29 27 27 26 26 27 25 24 28 32 35 34 29 27 29 28 26 29 31 31 35 36 36 36 37 38 39 43 47 51 54 59 64 65 66 68 68 65 59 55 53 50 47 47 49 49 48 47 47 49 52 56 57 58 58 56
12 10 11 11 11 11 11 11 11 11 11 11 11 12 12 14 15 15 17 19 19 20 21 23 26 28 27 27 27 29 31 30 27 27 25 24 26 27 26 28 33 36 35 30 29 31 30 29 31 33 36 38 39 38 39 42 46 49 53 57 56 56 61 67 66 66 66 62 56 52 49 48 48 47 48 49 48 49 51 53 57 60 60 58 55 53 49
10 11 11 11 11 11 11 11 11 11 12 12 12 13 14 15 16 16 19 23 23 21 22 25 28 30 28 26 27 28 29 28 26 27 26 24 27 29 27 29 34 36 36 35 35 34 34 34 34 36 37 39 42 44 47 51 56 59 61 63 62 60 62 68 67 62 60 54 50 49 48 47 50 52 51 50 50 53 56 59 61 60 58 56 52 50 47
11 11 11 11 11 12 11 12 12 13 14 14 15 16 16 18 19 18 21 24 24 22 24 26 26 24 23 25 26 24 25 27 26 24 25 27 29 30 30 31 34 35 35 37 37 34 33 35 36 38 41 44 49 52 53 53 56 61 63 64 65 63 61 62 61 55 53 52 48 46 47 50 54 54 50 50 53 57 58 60 59 55 53 54 52 49 46
11 12 12 13 13 13 14 15 15 15 16 16 17 18 17 18 19 19 22 24 23 21 23 24 23 21 22 25 25 24 26 28 26 22 24 30 32 32 33 33 34 35 35 36 35 33 34 38 41 44 48 52 55 55 53 53 55 58 59 60 64 63 57 55 53 49 51 53 47 44 52 58 56 51 49 53 58 59 59 58 56 50 47 48 48 46 45
14 14 15 15 16 16 16 17 16 17 17 16 16 16 16 17 17 16 20 23 22 20 20 21 21 22 24 25 25 26 28 29 28 26 27 31 33 34 34 32 32 34 36 36 37 37 40 45 48 52 55 55 55 53 53 55 56 54 54 56 59 57 52 50 50 48 49 50 45 44 54 59 54 50 53 55 56 56 55 54 52 48 44 44 46 46 46
15 16 16 16 16 16 15 15 15 14 14 13 13 13 13 14 14 14 17 20 21 21 21 21 21 22 25 26 26 27 29 29 28 29 30 30 30 31 32 32 32 35 38 39 41 43 48 52 54 56 57 58 57 54 54 57 57 53 53 53 52 50 48 47 48 46 45 46 47 46 49 53 55 57 56 54 53 53 52 51 52 49 45 44 46 47 47
15 15 14 13 13 12 11 11 10 10 10 10 10 10 10 11 12 13 15 19 22 22 20 21 24 24 25 27 27 26 28 28 26 28 31 30 28 30 32 33 36 38 40 42 44 47 51 56 58 57 56 57 57 55 56 58 56 53 52 49 47 47 46 44 45 46 45 46 50 52 55 59 63 62 54 51 53 54 53 54 53 48 45 46 48 47 44
12 11 11 10 10 10 9 8 8 8 8 8 9 9 10 11 12 12 14 18 22 23 23 23 24 25 26 27 28 27 29 31 29 30 31 30 31 35 37 38 39 41 43 45 48 50 50 52 53 53 53 52 51 52 56 57 54 52 49 46 43 43 43 43 44 45 48 50 53 61 70 69 62 56 51 49 51 50 49 53 53 47 47 49 48 44 39
10 10 10 10 10 10 9 9 9 9 9 10 10 11 11 12 13 13 14 16 18 22 26 27 27 28 29 30 31 30 32 35 36 36 38 38 38 40 41 42 42 44 46 48 49 50 50 49 49 50 51 49 48 50 54 56 55 50 47 45 43 41 43 46 46 47 53 56 57 62 67 63 55 53 49 47 47 46 46 51 54 50 48 47 43 40 36
11 11 12 12 13 13 14 14 13 13 13 14 14 14 15 16 16 17 18 18 21 27 30 31 34 35 34 34 35 35 36 39 39 39 41 42 42 42 43 44 45 46 47 48 49 50 51 50 52 53 53 50 48 49 51 54 56 51 46 45 45 44 46 47 47 52 57 59 56 52 51 52 52 50 46 42 42 44 49 53 53 48 45 43 40 38 36
14 14 15 16 16 17 17 18 18 17 17 17 17 17 18 18 19 21 21 20 25 32 33 32 36 39 37 37 39 39 40 42 43 44 44 43 43 45 45 44 45 46 44 44 47 49 49 49 50 51 51 49 48 51 52 54 55 52 47 46 48 51 53 52 51 55 58 60 56 46 43 50 50 45 43 41 41 46 54 56 51 45 42 40 38 37 38
16 16 17 17 17 18 18 18 19 19 19 19 19 19 20 20 20 21 22 22 25 32 34 32 34 37 37 38 40 41 43 44 44 46 47 45 43 45 46 43 42 41 40 42 46 47 47 49 50 50 53 52 50 51 53 53 54 52 49 50 52 54 57 57 57 57 57 58 55 46 45 50 48 43 43 43 45 53 56 52 47 43 39 39 38 39 40
16 15 16 16 16 16 17 17 18 18 18 19 20 20 21 21 21 22 23 23 25 30 33 33 33 35 36 37 38 40 42 42 42 43 44 44 43 43 44 42 39 39 41 43 45 46 46 48 50 51 54 53 50 51 53 53 52 50 51 54 55 54 57 60 59 56 55 56 54 49 47 48 46 45 46 47 50 54 51 45 43 41 39 40 41 41 42
14 14 14 15 15 15 16 17 17 17 18 18 19 20 20 21 21 22 23 24 25 29 33 34 34 35 36 36 37 38 39 40 41 41 42 42 40 40 40 39 39 41 43 43 44 45 45 48 51 52 53 53 52 52 55 57 55 51 51 55 56 56 59 60 56 54 56 57 52 47 47 48 47 47 50 50 49 49 47 44 43 40 40 42 43 43 44
14 15 15 15 16 16 17 17 17 17 18 19 20 20 20 21 21 22 24 24 25 29 33 34 35 35 36 36 36 37 38 39 40 39 38 38 37 37 37 39 41 43 43 42 44 46 47 50 53 54 56 55 53 53 57 60 59 56 54 56 57 57 55 51 50 50 51 50 46 44 47 51 51 49 50 50 50 48 46 43 41 41 43 44 44 44 45
17 17 17 18 18 18 19 19 19 19 20 21 21 21 22 22 23 24 25 25 26 30 33 33 33 34 35 35 36 37 37 37 37 35 35 36 38 38 38 40 43 43 42 42 44 46 49 50 51 53 55 54 53 56 59 60 60 59 57 56 55 53 47 45 48 48 44 42 43 46 50 53 53 52 52 51 50 47 45 42 42 44 46 45 46 46 46
19 18 19 19 19 20 21 21 21 21 22 22 22 23 23 24 24 26 26 26 27 30 32 33 33 34 35 35 36 36 35 34 34 33 34 36 38 39 40 41 43 43 42 45 46 47 48 48 47 50 53 53 54 59 60 59 58 59 60 59 54 48 43 44 46 47 44 44 45 48 51 53 53 54 53 51 49 46 44 44 45 46 46 47 48 48 48
18 18 18 19 19 20 21 21 21 22 22 22 23 23 24 24 25 26 27 27 27 29 33 35 35 34 35 35 34 33 33 33 33 33 35 35 37 39 41 42 43 43 43 45 46 44 45 46 49 52 53 52 54 58 59 57 55 56 59 58 51 44 42 44 46 48 48 47 46 48 51 52 53 55 53 50 48 46 45 46 47 47 48 48 49 50 51
18 18 18 18 19 20 20 21 21 21 21 22 22 23 24 24 25 26 27 27 27 28 32 36 35 33 33 33 32 32 32 33 33 33 35 36 37 39 41 41 43 44 43 45 44 42 41 45 50 55 54 51 52 56 55 53 54 56 56 50 44 42 44 45 47 49 50 48 47 49 51 52 54 55 52 48 49 48 48 48 49 48 49 49 50 53 54
17 16 17 18 19 20 20 20 21 21 21 22 22 23 24 24 24 25 26 27 28 28 31 35 34 33 32 32 32 33 33 34 34 35 36 38 39 39 40 41 42 43 43 44 42 40 41 45 49 52 52 50 51 53 51 50 54 56 52 45 42 44 45 46 49 53 53 52 52 54 56 56 55 53 50 50 51 50 49 49 50 49 49 50 51 51 52
15 15 15 17 17 18 19 20 21 21 21 21 22 23 23 23 24 25 25 25 26 27 29 32 33 33 32 31 32 33 33 34 34 34 36 37 39 39 40 39 40 41 42 43 42 42 45 49 50 50 50 49 50 51 49 50 53 54 49 44 42 43 44 46 50 53 52 52 54 57 58 57 55 52 50 51 51 50 50 50 50 49 49 49 49 49 50
13 14 15 15 16 18 18 19 20 21 21 22 22 22 23 24 24 25 25 26 26 25 27 30 32 31 30 30 30 31 31 32 32 33 35 36 37 37 38 37 38 39 40 42 43 45 47 48 49 49 47 46 47 48 49 52 54 51 46 42 41 42 43 44 48 50 51 53 57 59 59 57 54 51 51 52 52 51 51 51 49 48 47 47 49 50 49
13 13 14 15 16 17 17 18 20 20 21 22 22 22 23 24 24 25 25 26 26 26 26 28 30 29 28 29 29 30 30 31 31 33 34 34 34 34 35 36 38 39 39 40 43 44 45 45 45 45 43 42 43 46 48 51 53 48 43 42 42 43 45 46 48 50 53 55 58 60 59 56 53 51 52 54 52 50 51 50 47 45 45 48 50 50 48
12 13 14 15 15 16 17 18 19 20 21 21 22 22 23 23 24 25 25 25 26 25 24 26 28 28 27 27 28 29 30 31 31 32 32 32 33 33 34 36 38 37 36 38 39 40 41 41 40 40 39 37 38 43 47 50 51 48 43 42 44 45 48 49 50 52 55 57 58 59 57 54 52 53 54 52 50 50 50 47 43 44 48 50 50 48 46
12 13 14 14 15 16 17 18 19 20 20 21 21 20 21 22 24 25 24 24 24 24 24 26 29 28 27 27 28 28 29 30 30 30 31 32 32 33 33 34 36 34 34 35 35 35 37 38 37 37 37 34 35 43 48 48 47 45 42 42 44 47 50 51 52 55 57 57 58 58 56 55 55 56 55 52 50 49 46 42 43 47 49 49 47 46 45
13 13 14 14 15 16 17 18 19 20 20 20 20 19 20 21 24 25 25 23 23 22 22 25 29 29 27 28 29 28 27 29 29 28 30 32 31 31 31 32 31 32 32 32 32 33 35 35 34 34 35 32 33 40 46 45 41 41 42 43 45 49 51 52 55 56 57 59 61 60 58 57 58 58 54 51 48 45 42 42 46 48 46 45 44 44 44
13 13 14 14 15 16 17 18 20 20 20 20 21 20 20 21 23 25 26 24 23 22 21 24 30 32 29 29 30 28 26 28 28 27 28 29 27 28 30 29 29 30 31 31 32 32 33 33 33 35 35 35 35 39 42 41 40 41 43 44 47 50 51 53 55 57 58 61 63 58 55 56 57 55 51 47 44 43 43 44 46 45 43 42 43 43 43
13 13 14 14 15 16 17 18 20 20 20 21 21 22 22 23 24 25 26 24 22 23 23 24 29 34 32 31 32 29 26 26 27 28 27 27 26 27 28 27 29 31 32 31 31 32 33 33 34 34 36 38 41 43 42 41 40 42 44 46 49 51 51 52 54 57 60 63 60 55 56 59 58 53 49 46 44 43 43 44 44 43 41 41 42 43 44
13 13 14 15 15 16 17 18 19 19 20 21 22 23 24 25 25 26 26 24 22 23 24 25 30 33 32 31 30 28 25 25 26 26 26 25 26 27 28 29 32 32 31 31 33 33 34 34 34 35 38 41 42 43 40 39 41 43 45 48 51 51 51 54 56 59 62 63 58 56 59 61 57 53 51 48 46 44 44 44 44 43 42 42 43 44 45
13 14 14 14 15 16 17 18 19 19 19 21 22 23 25 27 28 28 26 24 23 22 22 25 30 31 29 29 28 26 25 25 25 25 26 26 26 27 28 32 36 35 33 34 35 34 33 34 37 40 42 41 40 40 39 40 43 45 47 50 52 51 52 56 58 60 63 62 58 58 61 61 57 56 56 53 49 46 45 45 45 45 44 45 45 45 46
14 14 14 14 15 16 17 18 18 19 19 21 22 24 25 27 29 29 27 24 24 23 22 25 29 29 27 28 27 25 25 24 24 24 26 26 26 27 29 32 35 35 36 38 36 33 34 39 42 44 43 41 39 40 42 43 45 46 50 53 53 52 54 58 60 62 64 61 58 59 62 62 61 61 60 55 49 47 46 46 46 45 45 45 46 47 47
14 14 14 14 16 16 17 18 19 18 19 21 22 24 26 27 29 28 26 24 24 24 24 26 28 28 27 28 27 26 24 25 25 26 27 27 26 26 29 31 32 33 37 38 35 32 36 42 45 45 44 43 42 41 43 45 47 49 52 54 54 54 57 60 62 64 65 62 60 62 64 64 64 63 59 53 48 46 46 47 46 45 45 45 47 48 47
14 14 14 15 15 16 17 18 18 18 20 20 21 23 27 29 29 28 28 29 28 26 25 26 28 28 26 28 29 27 24 24 25 26 27 27 26 26 29 29 28 33 40 40 35 34 38 42 44 44 43 42 42 42 43 47 49 52 55 55 54 56 59 60 63 67 66 62 62 64 65 65 65 62 56 51 47 46 47 47 47 46 46 46 47 48 47
14 14 14 14 15 17 17 17 18 18 19 19 22 26 29 32 31 29 29 31 30 27 26 27 28 26 25 27 28 27 24 24 25 25 27 27 26 27 29 29 28 33 38 37 36 39 42 43 45 46 42 40 41 44 46 49 52 55 55 55 55 58 61 62 65 69 67 63 63 65 65 65 64 59 53 49 47 47 49 49 48 46 46 46 48 48 46
14 13 14 15 15 16 17 17 16 17 17 19 23 28 33 34 32 30 29 29 27 27 27 28 28 27 25 26 26 25 24 24 23 24 26 26 24 25 31 33 32 32 34 35 38 42 43 44 47 47 42 39 43 46 48 51 55 55 54 55 58 60 61 63 67 68 64 62 64 66 65 63 61 56 52 49 48 49 51 51 49 47 46 47 48 47 45
14 14 14 15 15 16 17 17 15 17 21 24 24 28 34 37 35 32 30 29 28 28 28 28 28 28 26 25 25 24 23 23 23 23 24 23 23 27 33 35 33 31 32 37 42 43 42 44 47 46 41 40 44 47 49 53 55 54 54 57 60 61 62 65 68 66 61 61 63 65 64 60 57 54 51 50 50 51 52 51 49 48 47 47 47 46 44
14 14 14 15 14 14 16 17 16 16 21 26 27 29 33 35 36 35 32 29 28 29 30 30 31 30 28 26 25 24 22 23 23 22 21 22 27 31 32 32 32 32 34 40 45 44 43 44 45 41 40 42 45 47 51 54 54 53 56 60 61 61 63 66 66 62 59 60 62 63 60 57 53 51 49 49 50 52 53 51 49 48 47 47 47 45 42
14 14 13 14 15 14 15 18 18 17 20 27 34 37 37 35 35 35 32 28 28 30 31 31 31 31 28 26 25 24 22 21 21 21 22 24 27 29 29 30 33 35 37 42 43 39 37 40 40 38 39 43 46 49 52 53 52 54 59 61 61 62 64 64 61 58 57 58 60 60 58 55 52 50 48 48 51 54 53 51 50 49 48 48 46 44 41
14 14 13 14 16 16 16 19 21 21 22 28 34 38 38 35 33 31 29 27 28 30 30 30 31 29 28 26 25 24 22 20 20 23 25 24 24 26 27 29 32 34 34 36 38 37 36 38 38 38 40 45 48 49 50 51 53 57 60 61 60 61 61 59 56 54 54 56 58 58 58 55 52 49 47 48 51 54 53 52 50 49 48 48 46 43 41
14 14 13 15 17 18 18 19 20 21 24 27 29 32 34 34 30 27 26 27 28 28 29 30 30 29 28 27 26 24 23 22 22 24 24 24 25 27 28 28 32 35 31 30 35 43 44 39 36 38 42 45 46 47 48 51 56 58 59 59 59 59 56 53 51 51 53 54 56 57 56 53 50 48 46 48 52 54 53 51 50 50 49 48 45 43 42
14 13 13 15 17 18 18 19 20 22 24 27 29 32 33 32 28 26 25 26 26 28 29 30 30 30 30 29 27 26 24 22 22 24 24 23 23 24 25 27 32 37 36 35 40 46 44 37 35 40 43 43 44 46 50 54 57 58 58 58 57 54 51 49 49 50 51 53 54 55 53 51 48 46 46 48 52 54 53 51 50 50 49 47 44 42 42
14 14 14 16 17 18 17 18 21 23 25 26 30 33 33 31 27 24 24 25 26 28 29 30 30 30 30 29 27 27 25 23 23 24 24 24 25 26 27 27 29 34 39 41 41 39 36 35 38 41 41 41 44 48 52 55 57 58 58 57 55 51 49 48 48 49 51 52 52 52 51 49 46 44 44 48 53 54 54 52 51 49 48 46 45 43 43
14 14 14 15 16 17 18 20 24 26 26 27 31 34 34 31 26 23 24 25 26 28 29 30 30 30 29 28 27 26 25 26 26 24 22 26 30 29 26 27 33 38 40 38 35 33 34 37 39 39 40 42 46 50 53 56 57 57 56 56 53 50 48 47 48 49 50 51 51 51 51 49 46 44 45 49 53 55 55 53 50 49 48 47 45 44 44
14 14 14 14 15 15 17 20 23 24 25 27 31 33 34 31 26 22 23 25 27 28 29 29 29 29 28 26 24 22 22 26 29 26 23 26 31 31 27 30 36 39 36 33 32 34 36 37 38 39 41 44 47 50 54 55 55 55 56 56 53 50 47 47 48 49 50 50 51 52 51 50 47 45 46 49 53 55 55 53 50 49 50 49 46 45 46
14 14 14 14 14 14 16 18 20 22 24 27 31 34 35 32 26 22 23 26 27 27 28 28 29 29 27 25 24 24 24 25 28 28 25 25 29 31 31 32 33 32 30 31 33 35 36 37 39 41 43 45 49 52 53 53 53 54 55 56 53 50 47 46 47 49 50 51 52 53 53 52 49 47 47 50 54 55 54 53 51 51 52 50 48 47 48